Stations météo

réclame
Mon MeteoGroup
Ostersund/Froson, Suède (2226): Température de l'air & dewpoint: 12.01.2019 12:00:00 - 18.01.2019 12:00:00 (CET)Ostersund/Froson, Suède (2226): Vitesse du vent: 12.01.2019 12:00:00 - 18.01.2019 12:00:00 (CET)Ostersund/Froson, Suède (2226): Direction du vent: 12.01.2019 12:00:00 - 18.01.2019 12:00:00 (CET)Ostersund/Froson, Suède (2226): reduced air pressure: 12.01.2019 12:00:00 - 18.01.2019 12:00:00 (CET)Ostersund/Froson, Suède (2226): visibility: 12.01.2019 12:00:00 - 18.01.2019 12:00:00 (CET)
Date & Time tt [°C] td [°C] ff [km/h] ff [knt] dd ppp [hPa] vv [km]
18.01.2019 12:00:00 -6,1 -7,9 15 8 WNW 1001,2 10
18.01.2019 11:00:00 -5,9 -8,0 18 10 W 1000,7 10
18.01.2019 10:00:00 -6,7 -8,6 16 9 W 1000,2 10
18.01.2019 09:00:00 -6,2 -7,9 16 9 W 999,3 10
18.01.2019 08:00:00 -6,6 -8,5 18 10 W 998,5 10
18.01.2019 07:00:00 -6,8 -8,5 22 12 W 997,8 10
18.01.2019 06:00:00 -6,3 -8,1 28 15 WNW 997,3 10
18.01.2019 05:00:00 -6,7 -8,6 34 18 WNW 996,8 10
18.01.2019 04:00:00 -6,6 -8,5 24 13 WNW 996,5 10
18.01.2019 03:00:00 -6,1 -8,2 26 14 WNW 996,2 10
18.01.2019 02:00:00 -5,8 -8,1 22 12 WNW 996,3 10
18.01.2019 01:00:00 -5,8 -7,8 34 18 WNW 996,1 10
18.01.2019 00:00:00 -5,7 -7,7 34 18 WNW 995,9 10
17.01.2019 23:00:00 -5,7 -7,8 34 18 NW 995,6 10
17.01.2019 22:00:00 -5,3 -7,1 28 15 NW 995,3 10
17.01.2019 21:00:00 -4,8 -6,6 26 14 WNW 994,8 10
17.01.2019 20:00:00 -6,2 -7,6 16 9 WNW 994,3 10
17.01.2019 19:00:00 -7,7 -8,9 21 11 WNW 993,9 10
17.01.2019 18:00:00 -9,2 -10,3 16 9 WNW 993,5 10
17.01.2019 17:00:00 -8,2 -9,8 21 11 WNW 993,4 10
17.01.2019 16:00:00 -8,6 -10,5 26 14 WNW 992,8 10
17.01.2019 15:00:00 -8,3 -9,9 22 12 WNW 992,3 10
17.01.2019 14:00:00 -8,8 -10,6 21 11 W 992,0 10
17.01.2019 13:00:00 -10,1 -11,8 21 11 WNW 992,2 10
17.01.2019 12:00:00 -10,4 -11,9 22 12 WNW 992,3 10
17.01.2019 11:00:00 -10,7 -12,0 15 8 WNW 992,5 10
17.01.2019 10:00:00 -10,2 -11,5 16 9 WNW 992,4 10
17.01.2019 09:00:00 -9,1 -10,2 15 8 WNW 992,1 4,0
17.01.2019 08:00:00 -9,6 -10,9 8 4 NNW 991,6 4,2
17.01.2019 07:00:00 -9,6 -10,9 8 4 N 990,8 3,0
17.01.2019 06:00:00 -10,0 -11,5 9 5 N 990,0 2,0
17.01.2019 05:00:00 -10,3 -11,8 9 5 N 989,3 0,8
17.01.2019 04:00:00 -10,7 -12,2 11 6 N 988,6 1,2
17.01.2019 03:00:00 -11,1 -12,6 11 6 N 988,1 1,7
17.01.2019 02:00:00 -11,6 -13,0 9 5 N 987,8 3,2
17.01.2019 01:00:00 -11,8 -13,2 9 5 N 987,9 3,1
17.01.2019 00:00:00 -11,6 -13,1 9 5 N 987,6 2,5
16.01.2019 23:00:00 -10,3 -11,7 11 6 NNE 987,3 1,0
16.01.2019 22:00:00 -9,8 -11,3 13 7 ENE 987,2 1,1
16.01.2019 21:00:00 -9,7 -11,2 15 8 ENE 986,9 1,2
16.01.2019 20:00:00 -9,9 -11,4 18 10 E 987,0 0,8
16.01.2019 19:00:00 -10,0 -11,5 15 8 ENE 987,5 1,1
16.01.2019 18:00:00 -9,2 -10,5 15 8 E 987,8 2,5
16.01.2019 17:00:00 -9,7 -11,2 16 9 ESE 988,2 3,5
16.01.2019 16:00:00 -9,7 -11,5 21 11 ESE 988,5 8
16.01.2019 15:00:00 -10,0 -11,7 18 10 SE 989,3 10
16.01.2019 14:00:00 -10,3 -12,0 21 11 SE 989,8 10
16.01.2019 13:00:00 -10,3 -12,4 15 8 SSE 991,1 10
16.01.2019 12:00:00 -10,6 -12,6 18 10 SE 991,9 10
16.01.2019 11:00:00 -11,2 -12,9 15 8 SSE 992,7 10
16.01.2019 10:00:00 -12,7 -14,1 15 8 SSE 993,5 10
16.01.2019 09:00:00 -13,2 -14,8 9 5 SE 993,9 10
16.01.2019 08:00:00 -12,7 -14,1 4 2 S 994,3 10
16.01.2019 07:00:00 -13,5 -15,1 11 6 SSE 995,1 10
16.01.2019 06:00:00 -13,6 -15,2 8 4 SSE 995,4 10
16.01.2019 05:00:00 -12,2 -13,5 13 7 SSW 995,8 10
16.01.2019 04:00:00 -12,5 -13,8 13 7 SSW 996,1 10
16.01.2019 03:00:00 -11,1 -12,4 9 5 SSW 996,1 10
16.01.2019 02:00:00 -10,8 -12,1 9 5 WSW 996,5 10
16.01.2019 01:00:00 -9,2 -10,3 5 3 W 996,2 10
16.01.2019 00:00:00 -9,0 -10,1 11 6 W 996,1 10
15.01.2019 23:00:00 -8,2 -9,5 11 6 W 995,7 10
15.01.2019 22:00:00 -8,6 -9,8 13 7 W 995,6 10
15.01.2019 21:00:00 -8,4 -9,6 11 6 W 995,1 10
15.01.2019 20:00:00 -7,8 -8,7 8 4 NW 994,4 10
15.01.2019 19:00:00 -7,7 -9,1 13 7 WNW 993,9 10
15.01.2019 18:00:00 -7,1 -9,0 9 5 W 993,5 10
15.01.2019 17:00:00 -7,3 -9,5 9 5 W 993,2 10
15.01.2019 16:00:00 -7,3 -8,9 11 6 SW 993,0 10
15.01.2019 15:00:00 -7,0 -8,6 8 4 WNW 992,8 10
15.01.2019 14:00:00 -6,1 -8,4 5 3 NW 992,3 10
15.01.2019 13:00:00 -5,9 -8,2 11 6 W 992,7 10
15.01.2019 12:00:00 -6,4 -8,2 9 5 W 993,0 10
15.01.2019 11:00:00 -6,7 -8,5 15 8 W 993,2 10
15.01.2019 10:00:00 -6,6 -8,5 11 6 NW 993,6 10
15.01.2019 09:00:00 -7,0 -8,9 18 10 W 994,2 10
15.01.2019 08:00:00 -6,7 -9,1 15 8 W 994,5 10
15.01.2019 07:00:00 -6,5 -8,8 4 2 - 994,9 10
15.01.2019 06:00:00 -6,2 -8,9 11 6 NW 995,0 10
15.01.2019 05:00:00 -5,4 -8,3 21 11 NW 995,0 10
15.01.2019 04:00:00 -5,0 -8,1 22 12 WNW 995,0 10
15.01.2019 03:00:00 -4,7 -7,6 16 9 NW 995,1 10
15.01.2019 02:00:00 -5,4 -7,8 15 8 NW 994,7 10
15.01.2019 01:00:00 -4,9 -7,8 28 15 NW 994,2 10
15.01.2019 00:00:00 -4,8 -7,2 31 17 NW 993,6 10
14.01.2019 23:00:00 -5,1 -7,5 28 15 NW 992,9 10
14.01.2019 22:00:00 -5,2 -7,6 31 17 NW 992,7 10
14.01.2019 21:00:00 -5,3 -8,5 31 17 NW 992,0 10
14.01.2019 20:00:00 -5,0 -10,0 24 13 NW 991,0 10
14.01.2019 19:00:00 -4,8 -10,8 21 11 NNW 990,0 10
14.01.2019 18:00:00 -4,9 -10,1 22 12 NNW 988,7 10
14.01.2019 17:00:00 -4,8 -9,1 28 15 NW 987,5 10
14.01.2019 16:00:00 -4,9 -8,6 22 12 NNW 986,9 10
14.01.2019 15:00:00 -5,0 -9,8 26 14 NW 985,8 10
14.01.2019 14:00:00 -4,9 -9,5 29 16 NNW 984,6 10
14.01.2019 13:00:00 -5,1 -9,1 22 12 NNW 983,7 10
14.01.2019 12:00:00 -5,6 -9,2 24 13 NNW 982,9 10
14.01.2019 11:00:00 -6,5 -9,4 22 12 WNW 982,2 10
14.01.2019 10:00:00 -6,9 -9,5 22 12 WNW 981,2 10
14.01.2019 09:00:00 -7,1 -8,6 15 8 NW 980,1 10
14.01.2019 08:00:00 -6,2 -7,7 18 10 N 978,4 10
14.01.2019 07:00:00 -5,2 -7,0 22 12 NW 976,1 10
14.01.2019 06:00:00 -5,8 -6,8 16 9 WSW 975,5 10
14.01.2019 05:00:00 -5,5 -7,0 13 7 WSW 976,2 4,0
14.01.2019 04:00:00 -5,2 -7,2 18 10 WNW 977,7 10
14.01.2019 03:00:00 -5,4 -7,5 39 21 WNW 978,7 10
14.01.2019 02:00:00 -5,7 -8,1 29 16 WNW 978,4 10
14.01.2019 01:00:00 -5,9 -8,5 34 18 WNW 977,9 10
14.01.2019 00:00:00 -6,0 -9,0 29 16 WNW 977,9 10
13.01.2019 23:00:00 -6,0 -8,7 28 15 WNW 977,6 10
13.01.2019 22:00:00 -5,6 -8,3 28 15 WNW 977,5 10
13.01.2019 21:00:00 -5,2 -8,9 26 14 NW 977,6 10
13.01.2019 20:00:00 -4,8 -10,0 24 13 WNW 977,5 10
13.01.2019 19:00:00 -4,2 -8,3 34 18 NW 977,4 10
13.01.2019 18:00:00 -3,3 -7,3 35 19 NW 976,9 10
13.01.2019 17:00:00 -2,4 -5,9 37 20 NW 976,0 10
13.01.2019 16:00:00 -2,1 -4,9 31 17 NW 974,7 10
13.01.2019 15:00:00 -1,9 -5,1 41 22 WNW 974,0 10
13.01.2019 14:00:00 -1,1 -3,1 52 28 WNW 972,7 3,6
13.01.2019 13:00:00 -2,4 -4,7 16 9 S 972,4 10
13.01.2019 12:00:00 -3,6 -4,5 16 9 S 973,2 3,5
13.01.2019 11:00:00 -3,9 -4,9 21 11 S 974,3 2,4
13.01.2019 10:00:00 -3,8 -5,6 18 10 S 975,6 10
13.01.2019 09:00:00 -3,6 -5,9 22 12 S 976,8 10
13.01.2019 08:00:00 -3,5 -6,0 22 12 SSE 978,2 10
13.01.2019 07:00:00 -2,9 -5,9 26 14 SSE 979,9 10
13.01.2019 06:00:00 -3,3 -5,8 18 10 SSE 982,0 10
13.01.2019 05:00:00 -3,5 -5,7 13 7 SSE 984,0 10
13.01.2019 04:00:00 -3,3 -5,0 13 7 S 985,5 10
13.01.2019 03:00:00 -3,3 -3,8 11 6 SSE 987,3 10
13.01.2019 02:00:00 -3,0 -3,5 9 5 S 988,7 10
13.01.2019 01:00:00 -3,1 -3,6 9 5 S 990,1 10
13.01.2019 00:00:00 -3,0 -3,5 5 3 S 991,3 10
12.01.2019 23:00:00 -2,8 -3,2 4 2 S 992,2 10
12.01.2019 22:00:00 -2,8 -3,2 8 4 SW 993,1 10
12.01.2019 21:00:00 -2,8 -3,2 9 5 SW 994,1 7
12.01.2019 20:00:00 -2,5 -2,9 9 5 WSW 994,5 8
12.01.2019 19:00:00 -2,5 -2,9 5 3 WSW 995,1 8
12.01.2019 18:00:00 -2,4 -3,0 8 4 WNW 995,2 4,2
12.01.2019 17:00:00 -2,1 -2,7 8 4 NW 995,7 5
12.01.2019 16:00:00 -1,8 -2,4 11 6 NW 995,9 3,2
12.01.2019 15:00:00 -1,7 -2,8 13 7 W 996,0 10
12.01.2019 14:00:00 -1,6 -3,2 15 8 WNW 996,2 10
12.01.2019 13:00:00 -1,6 -3,6 13 7 WNW 996,6 10
12.01.2019 12:00:00 -1,6 -3,6 21 11 WNW 997,4 10

tt = Température de l'air
td = dewpoint
ff = Vitesse du vent
dd = Direction du vent
ppp = reduced air pressure
vv = visibility

stations d'obs. à proximité